National Oceanic Atmosphere Administration National Weather Service Headquarters National Weather Service Headquarters
NOAA logo WFO Anchorage Scalable transition graphic NWS logo
Transition from title bar to navgation bar   Aviation Weather 19 AKDT 
blankspace Home   |   Mobile   |   Social Media   |   Mesonet   |   Surface Map   |   Radar   |   Submit Storm Reports   |   News =03 GMT 

LocalForecast by City, St or Zip Code

spacer

Forecasts/Products
  Public
  Forecast Discussion
    - With Glossary
  Aviation
  Marine
  Hydrology(RFC)
  Rivers & Lakes AHPS
  Ice Desk
  TV Weather
  Fire Weather
  Avalanche
  Travel 511
  Graphical
  xml logo RSS Feeds
  Marine FTPMail

spacer

Data
  Mesonet
  Model Graphics
  Local Model
  Observations
  Marine Obs
  Satellite/Radar
  Vent Factor
  Soaring Index
  Weather Links

spacer

Climate
  PAFC Climate
  Interactive Climate
  PAFC Records
  Local
  National
  More

spacer

Outreach
  About Us
  Community Outreach
  Kids' Page
  Tour/Speaker Request
  Weather Classroom
  Social Media

spacer

Reports
  COOP Observers
  Local Storm Reports
  Spotter Page
  Submit a Storm Report

spacer

Miscellaneous
  Archived Alaska Weather Stories
  Student Career Opportunities
  Research Papers

spacer

Print Friendly/
Low Bandwidth

  Public Forecasts
  Marine Forecasts

spacer

Contact Us
  mailto pafcweb

spacer

Facebook Follow the National Weather Service in Alaska on Twitter
USA.gov is the U.S. government's official web portal to all federal, state and local government web resources and services.


 ICAO ID:   AAWU Graphics

Internet access to TAFs and METAR observations is for planning purposes only. We can not guarantee the timeliness of internet products. Before flying please get a formal pilot briefing (1-800-992-7433) and ALWAYS file a Flight Plan!Pilot briefings are provided to licensed aircraft pilots, ONLY! Others may not use the above number to obtain weather information.

Check out the Key to TAFs and METARs for help with decoding the information.

A 12 hour summary of TAFs can be found here.

PAKN TAF
PAKN 272320Z 2800/2824  20009KT P6SM SCT080 SCT200
     FM280300 23010KT P6SM VCSH SCT045 BKN070
     FM281200 26004KT 2SM BR OVC002
     FM282100 25006KT P6SM FEW005 SCT010=


METAR PAKN 280254Z 15007KT 10SM SCT049 SCT200 12/01 A2963 RMK AO2
 SLP033 T01220011 56005=
METAR PAKN 280254Z 15007KT 10SM SCT049 SCT200 12/01 A2963=
METAR PAKN 280154Z 22005KT 10SM FEW035 SCT200 12/01 A2963 RMK AO2 SLP033
     T01220011=
METAR PAKN 280154Z 22005KT 10SM FEW035 SCT200 12/01 A2963=
METAR PAKN 280054Z 18007KT 10SM FEW030 FEW080 SCT200 12/01 A2963 RMK AO2
     SLP034 T01170011=
METAR PAKN 280054Z 18007KT 10SM FEW030 FEW080 SCT200 12/01 A2963=
METAR PAKN 272354Z 20008KT 10SM FEW030 FEW080 SCT200 12/01 A2964 RMK AO2
     SLP038 T01170011 10117 20028 56005=
METAR PAKN 272354Z 20008KT 10SM FEW030 FEW080 SCT200 12/01 A2964=


National Weather Service
Anchorage Forecast Office
6930 Sand Lake Road
Anchorage, Ak 99502
(907) 266-5105 M-F/7-5pm
About Us
Career Opportunities
Glossary
Disclaimer
Privacy Policy
Credits
Alaska Weather Information Line:
1-800-472-0391